METEOR 2-11 DEB

Satellite information

Favourite Embed

Satellite Type and Status

DEBRISIN ORBIT

Key statistics

Satellite METEOR 2-11 DEB at a glance.

Uptime

15084

Days in orbit

Revolutions

≈ 14.0

Per day

Orbit

LEO

Low Earth Orbit

Inclination

82.5

Latest

Satellite identification and parameters

Extended collection of information and parameters for METEOR 2-11 DEB.

Object identification

Identified? True

Debris? True

Object name: METEOR 2-11 DEB

International designator: 1984-072Q

Object number (NORAD): 42454

Object ID (CCSDS): 42454

Country: COMMONWEALTH OF INDEPENDENT STATES (CIS)

Current information (Y/N): Y

RCS size: SMALL

Orbital parameters

Period: 103.04 minutes

Inclination: 82.5141 deg

SMA: 7280.552 km

Apoapsis: 914.878 km

Periapsis: 889.955 km

RAAN: 200.0446 deg

Eccentricy: 0.00171165

Argument of periapsis: 313.1421 deg

Mean anomaly: 46.8314 deg

Mean motion: 13.97514529 rev/day

Mean motion (dot): 0.00004502 rev/day2

B* drag term: 0.0031862668 1/REarth

Two-line elements (TLE)

Creation date: Oct. 19, 2025, 2:20 a.m.

Reference frame: TEME

Reference center: EARTH

Epoch: Oct. 18, 2025, 11:21 a.m. UTC

TLE line 0: 0 METEOR 2-11 DEB

TLE line 1: 1 42454U 84072Q 25291.47296948 .00004502 00000-0 31863-2 0 9992

TLE line 2: 2 42454 82.5141 200.0446 0017116 313.1421 46.8314 13.97514529528893

Live tracking on map

Real-time ground track for satellite METEOR 2-11 DEB.

In-orbit conjunctions

A list of the most updated potential collisions computed for object METEOR 2-11 DEB.

Target Orbit TCA Probability of collision Miss distance Type
FENGYUN 1C DEB SSO 2025-10-12 15:42:18 0.000157319 52.0 (m) DEBRIS
FENGYUN 1C DEB SSO 2025-06-21 11:19:13 0.001038423 61.0 (m) DEBRIS

Associated space launch

Second generation soviet meteorological satellite

METEOR 2-11 DEB was lifted into orbit during the mission ‘Tsiklon-3 | Meteor-2 11’, on board a Tsiklon-3 space rocket.

The launch took place on July 5, 1984, 3:35 a.m. from 32/2.

For more information about the launch, click the button.

Launch to space Tsiklon-3 | Meteor-2 11
Tsiklon-3 | Meteor-2 11

Agency: N/A

Status: Launch Successful

Launch date: July 5, 1984, 3:35 a.m. UTC

Rocket: Tsiklon-3

Launch pad: 32/2

Location: Plesetsk Cosmodrome, Russian Federation

...

Latest news about this satellite

There are no fresh news available about this satellite. Check back as we update our databases every day.


Newsletter sign-up

Weekly statistics, charts and insights to help you stay on top of the space industry.